| time (UTC) | temp F | wind direction | speed MPH | gust MPH | rain 1hr in | rain 24hr in | rain mn in | humidity % | barometer mb |
| 20260905123526 | 53 | 109 | 3.0 | 5.0 | 0.00 | 0.00 | 0.00 | 1018.0 | |
| 20260905123107 | 53 | 123 | 3.0 | 5.0 | 0.00 | 0.00 | 0.00 | 1018.1 | |
| 20260905122527 | 53 | 116 | 2.0 | 4.0 | 0.00 | 0.00 | 0.00 | 1018.1 | |
| 20260905122024 | 53 | 99 | 0.0 | 2.0 | 0.00 | 0.00 | 0.00 | 1018.1 | |
| 20260905121546 | 53 | 141 | 0.0 | 2.0 | 0.00 | 0.00 | 0.00 | 1018.0 | |
| 20260905121024 | 53 | 112 | 1.0 | 3.0 | 0.00 | 0.00 | 0.00 | 1018.1 | |
| 20260905120524 | 53 | 0 | 1.0 | 3.0 | 0.00 | 0.00 | 0.00 | 1017.9 | |
| 20260905120045 | 53 | 114 | 1.0 | 4.0 | 0.00 | 0.00 | 0.00 | 1017.9 | |
| 20260905115529 | 53 | 0 | 2.0 | 4.0 | 0.00 | 0.00 | 0.00 | 1018.0 | |
| 20260905115026 | 53 | 116 | 2.0 | 4.0 | 0.00 | 0.00 | 0.00 | 1017.9 | |
| 20260905114546 | 53 | 120 | 1.0 | 3.0 | 0.00 | 0.00 | 0.00 | 1018.0 | |
| 20260905114025 | 54 | 0 | 0.0 | 4.0 | 0.00 | 0.00 | 0.00 | 1017.9 | |
| 20260905113525 | 54 | 131 | 1.0 | 4.0 | 0.00 | 0.00 | 0.00 | 1018.0 | |
| 20260905113048 | 53 | 116 | 1.0 | 3.0 | 0.00 | 0.00 | 0.00 | 1017.9 | |
| 20260905112525 | 54 | 141 | 0.0 | 4.0 | 0.00 | 0.00 | 0.00 | 1017.9 | |
| 20260905112024 | 54 | 243 | 0.0 | 5.0 | 0.00 | 0.00 | 0.00 | 1017.9 | |
| 20260905111549 | 54 | 103 | 3.0 | 5.0 | 0.00 | 0.00 | 0.00 | 1017.9 | |
| 20260905111029 | 53 | 124 | 2.0 | 4.0 | 0.00 | 0.00 | 0.00 | 1017.9 | |
| 20260905110529 | 53 | 116 | 2.0 | 4.0 | 0.00 | 0.00 | 0.00 | 1017.8 | |
| 20260905110042 | 53 | 115 | 0.0 | 3.0 | 0.00 | 0.00 | 0.00 | 1018.0 | |
| 20260905105527 | 53 | 268 | 1.0 | 3.0 | 0.00 | 0.00 | 0.00 | 1017.9 | |
| 20260905105029 | 53 | 243 | 0.0 | 5.0 | 0.00 | 0.00 | 0.00 | 1017.9 | |
| 20260905104551 | 53 | 99 | 0.0 | 5.0 | 0.00 | 0.00 | 0.00 | 1017.9 | |
| 20260905104025 | 53 | 116 | 2.0 | 5.0 | 0.00 | 0.00 | 0.00 | 1018.0 | |
| 20260905103525 | 53 | 105 | 2.0 | 6.0 | 0.00 | 0.00 | 0.00 | 1018.0 | |
| 20260905103054 | 53 | 76 | 2.0 | 9.0 | 0.00 | 0.00 | 0.00 | 1018.1 | |
| 20260905102527 | 53 | 103 | 6.0 | 10.0 | 0.00 | 0.00 | 0.00 | 1018.0 | |
| 20260905102025 | 53 | 116 | 6.0 | 10.0 | 0.00 | 0.00 | 0.00 | 1017.9 | |
| 20260905101544 | 53 | 124 | 7.0 | 10.0 | 0.00 | 0.00 | 0.00 | 1017.9 | |
| 20260905101024 | 53 | 134 | 7.0 | 10.0 | 0.00 | 0.00 | 0.00 | 1017.9 | |
| 20260905100527 | 53 | 124 | 4.0 | 8.0 | 0.00 | 0.00 | 0.00 | 1017.8 | |
| 20260905100053 | 53 | 120 | 2.0 | 5.0 | 0.00 | 0.00 | 0.00 | 1017.9 | |
| 20260905095528 | 53 | 183 | 1.0 | 7.0 | 0.00 | 0.00 | 0.00 | 1017.8 | |
| 20260905095027 | 53 | 51 | 3.0 | 7.0 | 0.00 | 0.00 | 0.00 | 1017.8 | |
| 20260905094553 | 53 | 116 | 3.0 | 4.0 | 0.00 | 0.00 | 0.00 | 1017.9 | |
| 20260905094029 | 53 | 128 | 2.0 | 5.0 | 0.00 | 0.00 | 0.00 | 1017.9 | |
| 20260905093525 | 53 | 99 | 2.0 | 5.0 | 0.00 | 0.00 | 0.00 | 1017.9 | |
| 20260905093048 | 53 | 116 | 3.0 | 5.0 | 0.00 | 0.00 | 0.00 | 1017.9 | |
| 20260905092528 | 52 | 136 | 1.0 | 3.0 | 0.00 | 0.00 | 0.00 | 1017.8 | |
| 20260905092028 | 52 | 234 | 1.0 | 3.0 | 0.00 | 0.00 | 0.00 | 1017.8 | |
| 20260905091551 | 53 | 227 | 0.0 | 4.0 | 0.00 | 0.00 | 0.00 | 1017.9 | |
| 20260905091026 | 53 | 131 | 1.0 | 4.0 | 0.00 | 0.00 | 0.00 | 1017.8 | |
| 20260905090527 | 53 | 118 | 2.0 | 3.0 | 0.00 | 0.00 | 0.00 | 1017.8 | |
| 20260905090051 | 53 | 147 | 1.0 | 3.0 | 0.00 | 0.00 | 0.00 | 1017.8 | |
| 20260905085524 | 53 | 128 | 1.0 | 3.0 | 0.00 | 0.00 | 0.00 | 1017.7 | |
| 20260905085026 | 53 | 134 | 1.0 | 4.0 | 0.00 | 0.00 | 0.00 | 1017.7 | |
| 20260905084553 | 52 | 216 | 1.0 | 4.0 | 0.00 | 0.00 | 0.00 | 1017.8 | |
| 20260905084028 | 53 | 264 | 1.0 | 4.0 | 0.00 | 0.00 | 0.00 | 1017.6 | |
| 20260905083535 | 53 | 124 | 1.0 | 3.0 | 0.00 | 0.00 | 0.00 | 1017.6 | |
| 20260905083049 | 53 | 103 | 2.0 | 4.0 | 0.00 | 0.00 | 0.00 | 1017.6 | |
| 20260905082524 | 52 | 141 | 1.0 | 5.0 | 0.00 | 0.00 | 0.00 | 1017.6 | |
| 20260905082028 | 52 | 268 | 2.0 | 5.0 | 0.00 | 0.00 | 0.00 | 1017.7 | |
| 20260905081543 | 53 | 243 | 1.0 | 4.0 | 0.00 | 0.00 | 0.00 | 1017.6 | |
| 20260905081029 | 53 | 151 | 1.0 | 4.0 | 0.00 | 0.00 | 0.00 | 1017.6 | |
| 20260905080542 | 53 | 268 | 1.0 | 4.0 | 0.00 | 0.00 | 0.00 | 1017.6 | |
| 20260905080128 | 53 | 274 | 1.0 | 4.0 | 0.00 | 0.00 | 0.00 | 1017.6 | |
| 20260905075528 | 53 | 275 | 2.0 | 6.0 | 0.00 | 0.00 | 0.00 | 1017.6 | |
| 20260905075025 | 54 | 273 | 3.0 | 6.0 | 0.00 | 0.00 | 0.00 | 1017.7 | |
| 20260905074550 | 54 | 274 | 3.0 | 6.0 | 0.00 | 0.00 | 0.00 | 1017.6 | |
| 20260905074027 | 54 | 263 | 2.0 | 5.0 | 0.00 | 0.00 | 0.00 | 1017.5 | |
| 20260905073527 | 54 | 278 | 2.0 | 5.0 | 0.00 | 0.00 | 0.00 | 1017.4 | |
| 20260905073045 | 54 | 268 | 3.0 | 5.0 | 0.00 | 0.00 | 0.00 | 1017.5 | |
| 20260905072530 | 53 | 247 | 2.0 | 4.0 | 0.00 | 0.00 | 0.00 | 1017.4 | |
| 20260905072029 | 53 | 264 | 2.0 | 4.0 | 0.00 | 0.00 | 0.00 | 1017.4 | |
| 20260905071542 | 54 | 264 | 2.0 | 4.0 | 0.00 | 0.00 | 0.00 | 1017.4 | |
| 20260905071028 | 54 | 268 | 2.0 | 4.0 | 0.00 | 0.00 | 0.00 | 1017.4 | |
| 20260905070530 | 54 | 263 | 1.0 | 4.0 | 0.00 | 0.00 | 0.00 | 1017.2 | |
| 20260905070057 | 54 | 221 | 1.0 | 3.0 | 0.00 | 0.00 | 0.00 | 1017.2 | |
| 20260905065529 | 54 | 239 | 1.0 | 3.0 | 0.00 | 0.00 | 0.00 | 1017.2 | |
| 20260905065026 | 54 | 252 | 1.0 | 2.0 | 0.00 | 0.00 | 0.00 | 1017.2 | |
| 20260905064553 | 54 | 227 | 1.0 | 2.0 | 0.00 | 0.00 | 0.00 | 1017.3 | |
| 20260905064028 | 53 | 227 | 1.0 | 3.0 | 0.00 | 0.00 | 0.00 | 1017.1 | |
| 20260905063525 | 54 | 268 | 1.0 | 3.0 | 0.00 | 0.00 | 0.00 | 1017.2 | |
| 20260905063047 | 54 | 268 | 1.0 | 3.0 | 0.00 | 0.00 | 0.00 | 1017.3 | |
| 20260905062524 | 54 | 219 | 1.0 | 3.0 | 0.00 | 0.00 | 0.00 | 1017.0 | |
| 20260905062025 | 54 | 276 | 2.0 | 4.0 | 0.00 | 0.00 | 0.00 | 1017.1 | |
| 20260905061558 | 53 | 276 | 2.0 | 4.0 | 0.00 | 0.00 | 0.00 | 1017.1 | |
| 20260905061032 | 53 | 247 | 2.0 | 5.0 | 0.00 | 0.00 | 0.00 | 1017.1 | |
| 20260905060528 | 53 | 240 | 2.0 | 5.0 | 0.00 | 0.00 | 0.00 | 1017.0 | |
| 20260905060104 | 53 | 261 | 2.0 | 4.0 | 0.00 | 0.00 | 0.00 | 1017.1 | |
| 20260905055527 | 54 | 252 | 1.0 | 3.0 | 0.00 | 0.00 | 0.00 | 1017.1 | |
| 20260905055028 | 53 | 176 | 1.0 | 4.0 | 0.00 | 0.00 | 0.00 | 1017.0 | |
| 20260905054554 | 53 | 227 | 1.0 | 4.0 | 0.00 | 0.00 | 0.00 | 1017.0 | |
| 20260905054028 | 53 | 265 | 1.0 | 4.0 | 0.00 | 0.00 | 0.00 | 1017.0 | |
| 20260905053528 | 53 | 261 | 1.0 | 4.0 | 0.00 | 0.00 | 0.00 | 1017.1 | |
| 20260905053056 | 53 | 255 | 2.0 | 4.0 | 0.00 | 0.00 | 0.00 | 1017.0 | |
| 20260905052527 | 53 | 239 | 2.0 | 4.0 | 0.00 | 0.00 | 0.00 | 1017.0 | |
| 20260905052025 | 53 | 112 | 1.0 | 4.0 | 0.00 | 0.00 | 0.00 | 1016.8 | |
| 20260905051552 | 53 | 250 | 1.0 | 4.0 | 0.00 | 0.00 | 0.00 | 1016.8 | |
| 20260905051028 | 53 | 216 | 1.0 | 4.0 | 0.00 | 0.00 | 0.00 | 1017.0 | |
| 20260905050529 | 53 | 232 | 1.0 | 5.0 | 0.00 | 0.00 | 0.00 | 1016.9 | |
| 20260905050045 | 53 | 222 | 1.0 | 5.0 | 0.00 | 0.00 | 0.00 | 1016.8 | |
| 20260905045523 | 53 | 255 | 2.0 | 5.0 | 0.00 | 0.00 | 0.00 | 1016.9 | |
| 20260905045027 | 53 | 268 | 3.0 | 5.0 | 0.00 | 0.00 | 0.00 | 1016.8 | |
| 20260905044552 | 53 | 279 | 2.0 | 4.0 | 0.00 | 0.00 | 0.00 | 1016.8 | |
| 20260905044024 | 54 | 268 | 2.0 | 4.0 | 0.00 | 0.00 | 0.00 | 1017.0 | |
| 20260905043524 | 54 | 243 | 1.0 | 3.0 | 0.00 | 0.00 | 0.00 | 1016.9 | |
| 20260905043105 | 54 | 166 | 1.0 | 4.0 | 0.00 | 0.00 | 0.00 | 1017.0 | |
| 20260905042528 | 54 | 158 | 1.0 | 4.0 | 0.00 | 0.00 | 0.00 | 1016.7 | |
| 20260905042024 | 54 | 268 | 2.0 | 4.0 | 0.00 | 0.00 | 0.00 | 1016.9 | |
| 20260905041544 | 54 | 273 | 1.0 | 6.0 | 0.00 | 0.00 | 0.00 | 1016.9 | |
| 20260905041025 | 54 | 295 | 2.0 | 6.0 | 0.00 | 0.00 | 0.00 | 1016.8 | |
| 20260905040526 | 54 | 280 | 2.0 | 5.0 | 0.00 | 0.00 | 0.00 | 1016.9 | |
| 20260905040052 | 54 | 265 | 3.0 | 5.0 | 0.00 | 0.00 | 0.00 | 1016.7 | |
| 20260905035525 | 54 | 276 | 3.0 | 5.0 | 0.00 | 0.00 | 0.00 | 1016.7 | |
| 20260905035026 | 54 | 276 | 3.0 | 6.0 | 0.00 | 0.00 | 0.00 | 1016.5 | |
| 20260905034544 | 54 | 290 | 4.0 | 6.0 | 0.00 | 0.00 | 0.00 | 1016.5 | |
| 20260905034024 | 54 | 277 | 3.0 | 6.0 | 0.00 | 0.00 | 0.00 | 1016.6 | |
| 20260905033523 | 54 | 280 | 2.0 | 5.0 | 0.00 | 0.00 | 0.00 | 1016.4 | |
| 20260905033044 | 54 | 285 | 2.0 | 4.0 | 0.00 | 0.00 | 0.00 | 1016.4 | |
| 20260905032529 | 54 | 283 | 2.0 | 4.0 | 0.00 | 0.00 | 0.00 | 1016.3 | |
| 20260905032025 | 53 | 273 | 3.0 | 4.0 | 0.00 | 0.00 | 0.00 | 1016.3 | |
| 20260905031544 | 53 | 176 | 3.0 | 4.0 | 0.00 | 0.00 | 0.00 | 1016.2 | |
| 20260905031027 | 54 | 176 | 3.0 | 4.0 | 0.00 | 0.00 | 0.00 | 1016.2 | |
| 20260905030525 | 54 | 176 | 3.0 | 4.0 | 0.00 | 0.00 | 0.00 | 1016.3 | |
| 20260905030053 | 54 | 176 | 3.0 | 4.0 | 0.00 | 0.00 | 0.00 | 1016.2 | |
| 20260905025523 | 54 | 176 | 3.0 | 4.0 | 0.00 | 0.00 | 0.00 | 1016.4 | |
| 20260905025027 | 54 | 176 | 3.0 | 4.0 | 0.00 | 0.00 | 0.00 | 1016.3 | |
| 20260905024547 | 54 | 176 | 3.0 | 4.0 | 0.00 | 0.00 | 0.00 | 1016.3 | |
| 20260905024025 | 54 | 176 | 3.0 | 4.0 | 0.00 | 0.00 | 0.00 | 1016.3 | |
| 20260905023531 | 54 | 176 | 3.0 | 4.0 | 0.00 | 0.00 | 0.00 | 1016.3 | |
| 20260905023045 | 54 | 176 | 3.0 | 4.0 | 0.00 | 0.00 | 0.00 | 1016.3 | |
| 20260905022526 | 55 | 176 | 3.0 | 4.0 | 0.00 | 0.00 | 0.00 | 1016.4 | |
| 20260905022026 | 55 | 176 | 3.0 | 4.0 | 0.00 | 0.00 | 0.00 | 1016.3 | |
| 20260905021553 | 55 | 176 | 3.0 | 4.0 | 0.00 | 0.00 | 0.00 | 1016.3 | |
| 20260905021024 | 55 | 176 | 3.0 | 4.0 | 0.00 | 0.00 | 0.00 | 1016.3 | |
| 20260905020527 | 55 | 176 | 3.0 | 4.0 | 0.00 | 0.00 | 0.00 | 1016.2 | |
| 20260905020053 | 55 | 176 | 3.0 | 4.0 | 0.00 | 0.00 | 0.00 | 1016.2 | |
| 20260905015540 | 55 | 176 | 3.0 | 4.0 | 0.00 | 0.00 | 0.00 | 1016.1 | |
| 20260905015026 | 55 | 176 | 3.0 | 4.0 | 0.00 | 0.00 | 0.00 | 1016.0 | |
| 20260905014544 | 55 | 176 | 3.0 | 4.0 | 0.00 | 0.00 | 0.00 | 1016.1 | |
| 20260905014029 | 56 | 176 | 3.0 | 4.0 | 0.00 | 0.00 | 0.00 | 1016.0 | |
| 20260905013525 | 56 | 176 | 3.0 | 4.0 | 0.00 | 0.00 | 0.00 | 1015.9 | |
| 20260905013050 | 55 | 176 | 3.0 | 4.0 | 0.00 | 0.00 | 0.00 | 1015.9 | |
| 20260905012526 | 56 | 176 | 3.0 | 4.0 | 0.00 | 0.00 | 0.00 | 1015.8 | |
| 20260905012025 | 56 | 176 | 3.0 | 4.0 | 0.00 | 0.00 | 0.00 | 1015.8 | |
| 20260905011610 | 58 | 176 | 3.0 | 4.0 | 0.00 | 0.00 | 0.00 | 1015.6 | |
| 20260905011025 | 59 | 176 | 3.0 | 4.0 | 0.00 | 0.00 | 0.00 | 1015.7 | |
| 20260905010528 | 62 | 176 | 3.0 | 4.0 | 0.00 | 0.00 | 0.00 | 1015.5 | |
| 20260905010047 | 63 | 176 | 3.0 | 4.0 | 0.00 | 0.00 | 0.00 | 1015.5 | |
| 20260905005525 | 66 | 176 | 3.0 | 4.0 | 0.00 | 0.00 | 0.00 | 1015.6 | |
| 20260905005028 | 69 | 176 | 3.0 | 4.0 | 0.00 | 0.00 | 0.00 | 1015.6 | |
| 20260905004545 | 65 | 176 | 3.0 | 4.0 | 0.00 | 0.00 | 0.00 | 1015.6 | |
| 20260905004028 | 61 | 176 | 3.0 | 4.0 | 0.00 | 0.00 | 0.00 | 1015.5 | |
| 20260905003528 | 61 | 176 | 3.0 | 4.0 | 0.00 | 0.00 | 0.00 | 1015.6 | |
| 20260905003056 | 60 | 176 | 3.0 | 4.0 | 0.00 | 0.00 | 0.00 | 1015.4 | |
| 20260905002526 | 60 | 176 | 3.0 | 4.0 | 0.00 | 0.00 | 0.00 | 1015.6 | |
| 20260905002028 | 60 | 176 | 3.0 | 4.0 | 0.00 | 0.00 | 0.00 | 1015.6 | |
| 20260905001553 | 60 | 176 | 3.0 | 4.0 | 0.00 | 0.00 | 0.00 | 1015.6 | |
| 20260905001027 | 59 | 176 | 3.0 | 4.0 | 0.00 | 0.00 | 0.00 | 1015.7 | |
| 20260905000526 | 58 | 176 | 3.0 | 4.0 | 0.00 | 0.00 | 0.00 | 1015.6 | |
| 20260905000048 | 58 | 176 | 3.0 | 4.0 | 0.00 | 0.00 | 0.00 | 1015.7 | |
| 20260904235527 | 58 | 176 | 3.0 | 4.0 | 0.00 | 0.00 | 0.00 | 1015.6 | |
| 20260904235027 | 58 | 176 | 3.0 | 4.0 | 0.00 | 0.00 | 0.00 | 1015.6 | |
| 20260904234546 | 57 | 176 | 3.0 | 4.0 | 0.00 | 0.00 | 0.00 | 1015.5 | |
| 20260904234028 | 57 | 176 | 3.0 | 4.0 | 0.00 | 0.00 | 0.00 | 1015.6 | |
| 20260904233530 | 57 | 176 | 3.0 | 4.0 | 0.00 | 0.00 | 0.00 | 1015.4 | |
| 20260904233053 | 56 | 176 | 3.0 | 4.0 | 0.00 | 0.00 | 0.00 | 1015.5 | |
| 20260904232530 | 56 | 176 | 3.0 | 4.0 | 0.00 | 0.00 | 0.00 | 1015.5 | |
| 20260904232027 | 56 | 176 | 3.0 | 4.0 | 0.00 | 0.00 | 0.00 | 1015.5 | |
| 20260904231551 | 56 | 176 | 3.0 | 4.0 | 0.00 | 0.00 | 0.00 | 1015.5 | |
| 20260904231027 | 57 | 176 | 3.0 | 4.0 | 0.00 | 0.00 | 0.00 | 1015.4 | |
| 20260904230531 | 56 | 176 | 3.0 | 4.0 | 0.00 | 0.00 | 0.00 | 1015.5 | |
| 20260904230049 | 56 | 176 | 3.0 | 4.0 | 0.00 | 0.00 | 0.00 | 1015.4 | |
| 20260904225525 | 55 | 176 | 3.0 | 4.0 | 0.00 | 0.00 | 0.00 | 1015.5 | |
| 20260904225025 | 55 | 176 | 3.0 | 4.0 | 0.00 | 0.00 | 0.00 | 1015.3 | |
| 20260904224548 | 54 | 176 | 3.0 | 4.0 | 0.00 | 0.00 | 0.00 | 1015.4 | |
| 20260904224027 | 53 | 176 | 3.0 | 4.0 | 0.00 | 0.00 | 0.00 | 1015.5 | |
| 20260904223526 | 53 | 176 | 3.0 | 4.0 | 0.00 | 0.00 | 0.00 | 1015.5 | |
| 20260904223044 | 53 | 176 | 3.0 | 4.0 | 0.00 | 0.00 | 0.00 | 1015.4 | |
| 20260904222528 | 52 | 176 | 3.0 | 4.0 | 0.00 | 0.00 | 0.00 | 1015.4 | |
| 20260904222025 | 52 | 176 | 3.0 | 4.0 | 0.00 | 0.00 | 0.00 | 1015.4 | |
| 20260904221556 | 53 | 176 | 3.0 | 9.0 | 0.00 | 0.00 | 0.00 | 1015.3 | |
| 20260904221027 | 53 | 176 | 3.0 | 9.0 | 0.00 | 0.00 | 0.00 | 1015.4 | |
| 20260904220527 | 52 | 128 | 5.0 | 12.0 | 0.00 | 0.00 | 0.00 | 1015.6 | |
| 20260904220105 | 53 | 164 | 2.0 | 12.0 | 0.00 | 0.00 | 0.00 | 1015.5 | |
| 20260904215530 | 53 | 190 | 7.0 | 16.0 | 0.00 | 0.00 | 0.00 | 1015.3 | |
| 20260904215026 | 53 | 172 | 7.0 | 16.0 | 0.00 | 0.00 | 0.00 | 1015.3 | |
| 20260904214551 | 58 | 160 | 7.0 | 16.0 | 0.00 | 0.00 | 0.00 | 1015.3 | |
| 20260904214028 | 61 | 109 | 8.0 | 16.0 | 0.00 | 0.00 | 0.00 | 1015.2 | |
| 20260904213531 | 62 | 100 | 9.0 | 16.0 | 0.00 | 0.00 | 0.00 | 1014.8 | |
| 20260904213053 | 62 | 128 | 9.0 | 15.0 | 0.00 | 0.00 | 0.00 | 1014.6 | |
| 20260904212529 | 62 | 99 | 7.0 | 15.0 | 0.00 | 0.00 | 0.00 | 1014.3 | |
| 20260904212028 | 62 | 121 | 4.0 | 14.0 | 0.00 | 0.00 | 0.00 | 1014.4 | |
| 20260904211545 | 63 | 135 | 4.0 | 15.0 | 0.00 | 0.00 | 0.00 | 1014.5 | |
| 20260904211030 | 62 | 121 | 9.0 | 15.0 | 0.00 | 0.00 | 0.00 | 1014.4 | |
| 20260904210526 | 63 | 118 | 4.0 | 14.0 | 0.00 | 0.00 | 0.00 | 1014.3 | |
| 20260904210048 | 64 | 231 | 7.0 | 14.0 | 0.00 | 0.00 | 0.00 | 1014.3 | |
| 20260904205529 | 64 | 123 | 6.0 | 14.0 | 0.00 | 0.00 | 0.00 | 1014.3 | |
| 20260904205028 | 65 | 59 | 5.0 | 14.0 | 0.00 | 0.00 | 0.00 | 1014.3 | |
| 20260904204553 | 65 | 116 | 7.0 | 14.0 | 0.00 | 0.00 | 0.00 | 1014.1 | |
| 20260904204027 | 66 | 68 | 6.0 | 15.0 | 0.00 | 0.00 | 0.00 | 1014.1 | |
| 20260904203527 | 67 | 105 | 5.0 | 15.0 | 0.00 | 0.00 | 0.00 | 1014.0 | |
| 20260904203050 | 69 | 101 | 6.0 | 13.0 | 0.00 | 0.00 | 0.00 | 1014.1 | |
| 20260904202526 | 72 | 268 | 5.0 | 15.0 | 0.00 | 0.00 | 0.00 | 1014.1 | |
| 20260904202025 | 73 | 295 | 4.0 | 16.0 | 0.00 | 0.00 | 0.00 | 1014.0 | |
| 20260904201606 | 74 | 141 | 5.0 | 16.0 | 0.00 | 0.00 | 0.00 | 1014.0 | |
| 20260904201031 | 73 | 360 | 6.0 | 16.0 | 0.00 | 0.00 | 0.00 | 1014.0 | |
| 20260904200528 | 72 | 243 | 5.0 | 16.0 | 0.00 | 0.00 | 0.00 | 1014.1 | |
| 20260904200050 | 70 | 15 | 7.0 | 17.0 | 0.00 | 0.00 | 0.00 | 1014.0 | |
| 20260904195529 | 69 | 22 | 8.0 | 17.0 | 0.00 | 0.00 | 0.00 | 1014.1 | |
| 20260904195026 | 67 | 99 | 7.0 | 19.0 | 0.00 | 0.00 | 0.00 | 1014.1 | |
| 20260904194543 | 67 | 42 | 8.0 | 19.0 | 0.00 | 0.00 | 0.00 | 1014.2 | |
| 20260904194031 | 65 | 68 | 7.0 | 18.0 | 0.00 | 0.00 | 0.00 | 1014.3 | |
| 20260904193527 | 66 | 114 | 9.0 | 18.0 | 0.00 | 0.00 | 0.00 | 1014.4 | |
| 20260904193050 | 66 | 117 | 9.0 | 18.0 | 0.00 | 0.00 | 0.00 | 1014.4 | |
| 20260904192533 | 67 | 110 | 12.0 | 18.0 | 0.00 | 0.00 | 0.00 | 1014.6 | |
| 20260904192028 | 73 | 117 | 9.0 | 18.0 | 0.00 | 0.00 | 0.00 | 1014.5 | |
| 20260904191544 | 72 | 103 | 10.0 | 20.0 | 0.00 | 0.00 | 0.00 | 1014.5 | |
| 20260904191029 | 72 | 77 | 8.0 | 20.0 | 0.00 | 0.00 | 0.00 | 1014.4 | |
| 20260904190528 | 71 | 103 | 10.0 | 16.0 | 0.00 | 0.00 | 0.00 | 1014.6 | |
| 20260904190054 | 69 | 42 | 7.0 | 20.0 | 0.00 | 0.00 | 0.00 | 1014.5 | |
| 20260904185529 | 66 | 105 | 7.0 | 20.0 | 0.00 | 0.00 | 0.00 | 1014.6 | |
| 20260904185029 | 68 | 106 | 8.0 | 18.0 | 0.00 | 0.00 | 0.00 | 1014.5 | |
| 20260904184550 | 67 | 136 | 8.0 | 18.0 | 0.00 | 0.00 | 0.00 | 1014.4 | |
| 20260904184029 | 65 | 74 | 11.0 | 18.0 | 0.00 | 0.00 | 0.00 | 1014.4 | |
| 20260904183530 | 65 | 113 | 7.0 | 16.0 | 0.00 | 0.00 | 0.00 | 1014.5 | |
| 20260904183058 | 62 | 129 | 10.0 | 16.0 | 0.00 | 0.00 | 0.00 | 1014.4 | |
| 20260904182526 | 63 | 109 | 5.0 | 18.0 | 0.00 | 0.00 | 0.00 | 1014.4 | |
| 20260904182030 | 62 | 72 | 9.0 | 19.0 | 0.00 | 0.00 | 0.00 | 1014.5 | |
| 20260904181544 | 63 | 114 | 9.0 | 24.0 | 0.00 | 0.00 | 0.00 | 1014.4 | |
| 20260904181028 | 62 | 47 | 9.0 | 24.0 | 0.00 | 0.00 | 0.00 | 1014.4 | |
| 20260904180528 | 63 | 119 | 11.0 | 22.0 | 0.00 | 0.00 | 0.00 | 1014.4 | |
| 20260904180056 | 62 | 111 | 14.0 | 22.0 | 0.00 | 0.00 | 0.00 | 1014.3 | |
| 20260904175530 | 66 | 118 | 8.0 | 18.0 | 0.00 | 0.00 | 0.00 | 1014.3 | |
| 20260904175027 | 65 | 106 | 8.0 | 21.0 | 0.00 | 0.00 | 0.00 | 1014.2 | |
| 20260904174557 | 63 | 278 | 10.0 | 22.0 | 0.00 | 0.00 | 0.00 | 1014.3 | |
| 20260904174027 | 63 | 103 | 10.0 | 22.0 | 0.00 | 0.00 | 0.00 | 1014.3 | |
| 20260904173527 | 62 | 109 | 14.0 | 22.0 | 0.00 | 0.00 | 0.00 | 1014.1 | |
| 20260904173112 | 59 | 109 | 13.0 | 20.0 | 0.00 | 0.00 | 0.00 | 1014.2 | |
| 20260904172532 | 61 | 112 | 11.0 | 22.0 | 0.00 | 0.00 | 0.00 | 1014.2 | |
| 20260904172027 | 62 | 140 | 10.0 | 25.0 | 0.00 | 0.00 | 0.00 | 1014.2 | |
| 20260904171555 | 59 | 77 | 12.0 | 25.0 | 0.00 | 0.00 | 0.00 | 1014.1 | |
| 20260904171024 | 58 | 78 | 15.0 | 25.0 | 0.00 | 0.00 | 0.00 | 1014.2 | |
| 20260904170529 | 57 | 80 | 13.0 | 22.0 | 0.00 | 0.00 | 0.00 | 1014.1 | |
| 20260904170049 | 55 | 80 | 13.0 | 25.0 | 0.00 | 0.00 | 0.00 | 1014.0 | |
| 20260904165528 | 54 | 80 | 17.0 | 25.0 | 0.00 | 0.00 | 0.00 | 1014.1 | |
| 20260904165026 | 54 | 78 | 14.0 | 25.0 | 0.00 | 0.00 | 0.00 | 1014.1 | |
| 20260904164555 | 54 | 74 | 16.0 | 27.0 | 0.00 | 0.00 | 0.00 | 1014.1 | |
| 20260904164027 | 53 | 80 | 18.0 | 27.0 | 0.00 | 0.00 | 0.00 | 1014.1 | |
| 20260904163534 | 53 | 80 | 18.0 | 27.0 | 0.00 | 0.00 | 0.00 | 1014.0 | |
| 20260904163107 | 53 | 78 | 18.0 | 27.0 | 0.00 | 0.00 | 0.00 | 1013.9 | |
| 20260904162529 | 53 | 80 | 20.0 | 27.0 | 0.00 | 0.00 | 0.00 | 1013.9 | |
| 20260904162024 | 53 | 78 | 18.0 | 26.0 | 0.00 | 0.00 | 0.00 | 1013.9 | |
| 20260904161548 | 52 | 108 | 17.0 | 26.0 | 0.00 | 0.00 | 0.00 | 1013.7 | |
| 20260904161025 | 52 | 113 | 13.0 | 21.0 | 0.00 | 0.00 | 0.00 | 1013.8 | |
| 20260904160531 | 52 | 103 | 13.0 | 22.0 | 0.00 | 0.00 | 0.00 | 1014.0 | |
| 20260904160044 | 52 | 158 | 12.0 | 22.0 | 0.00 | 0.00 | 0.00 | 1013.9 | |
| 20260904155526 | 52 | 107 | 15.0 | 23.0 | 0.00 | 0.00 | 0.00 | 1014.1 | |
| 20260904155030 | 52 | 114 | 14.0 | 23.0 | 0.00 | 0.00 | 0.00 | 1013.9 | |
| 20260904154553 | 52 | 126 | 14.0 | 23.0 | 0.00 | 0.00 | 0.00 | 1014.0 | |
| 20260904154025 | 52 | 113 | 15.0 | 25.0 | 0.00 | 0.00 | 0.00 | 1013.8 | |
| 20260904153527 | 52 | 111 | 13.0 | 25.0 | 0.00 | 0.00 | 0.00 | 1013.8 | |
| 20260904153055 | 52 | 111 | 16.0 | 25.0 | 0.00 | 0.00 | 0.00 | 1013.8 | |
| 20260904152530 | 52 | 122 | 15.0 | 26.0 | 0.00 | 0.00 | 0.00 | 1013.6 | |
| 20260904152028 | 52 | 119 | 18.0 | 27.0 | 0.00 | 0.00 | 0.00 | 1013.8 | |
| 20260904151547 | 52 | 116 | 17.0 | 28.0 | 0.00 | 0.00 | 0.00 | 1013.7 | |
| 20260904151028 | 52 | 110 | 17.0 | 28.0 | 0.00 | 0.00 | 0.00 | 1013.5 | |
| 20260904150531 | 52 | 106 | 17.0 | 27.0 | 0.00 | 0.00 | 0.00 | 1013.3 | |
| 20260904150051 | 52 | 109 | 15.0 | 26.0 | 0.00 | 0.00 | 0.00 | 1013.2 | |
| 20260904145527 | 52 | 112 | 14.0 | 27.0 | 0.00 | 0.00 | 0.00 | 1013.2 | |
| 20260904145030 | 52 | 122 | 14.0 | 27.0 | 0.00 | 0.00 | 0.00 | 1013.2 | |
| 20260904144553 | 52 | 112 | 16.0 | 27.0 | 0.00 | 0.00 | 0.00 | 1013.2 | |
| 20260904144028 | 51 | 78 | 17.0 | 23.0 | 0.00 | 0.00 | 0.00 | 1013.2 | |
| 20260904143528 | 51 | 77 | 14.0 | 24.0 | 0.00 | 0.00 | 0.00 | 1013.2 | |
| 20260904143043 | 51 | 77 | 17.0 | 24.0 | 0.00 | 0.00 | 0.00 | 1013.2 | |
| 20260904142530 | 51 | 76 | 13.0 | 21.0 | 0.00 | 0.00 | 0.00 | 1013.2 | |
| 20260904142029 | 51 | 76 | 14.0 | 22.0 | 0.00 | 0.00 | 0.00 | 1013.2 | |
| 20260904141544 | 51 | 76 | 16.0 | 22.0 | 0.00 | 0.00 | 0.00 | 1013.1 | |
| 20260904141025 | 51 | 74 | 15.0 | 21.0 | 0.00 | 0.00 | 0.00 | 1012.9 | |
| 20260904140528 | 51 | 99 | 11.0 | 21.0 | 0.00 | 0.00 | 0.00 | 1012.9 | |
| 20260904140050 | 51 | 76 | 11.0 | 21.0 | 0.00 | 0.00 | 0.00 | 1013.0 | |
| 20260904135527 | 51 | 78 | 13.0 | 21.0 | 0.00 | 0.00 | 0.00 | 1012.9 | |
| 20260904135026 | 51 | 76 | 11.0 | 21.0 | 0.00 | 0.00 | 0.00 | 1012.9 | |
| 20260904134548 | 51 | 74 | 12.0 | 20.0 | 0.00 | 0.00 | 0.00 | 1012.9 | |
| 20260904134025 | 51 | 78 | 14.0 | 19.0 | 0.00 | 0.00 | 0.00 | 1012.7 | |
| 20260904133525 | 51 | 81 | 10.0 | 21.0 | 0.00 | 0.00 | 0.00 | 1012.7 | |
| 20260904133047 | 51 | 76 | 14.0 | 21.0 | 0.00 | 0.00 | 0.00 | 1012.7 | |
| 20260904132529 | 51 | 81 | 9.0 | 20.0 | 0.00 | 0.00 | 0.00 | 1012.7 | |
| 20260904132030 | 51 | 141 | 11.0 | 20.0 | 0.00 | 0.00 | 0.00 | 1012.6 | |
| 20260904131556 | 51 | 76 | 11.0 | 22.0 | 0.00 | 0.00 | 0.00 | 1012.5 | |
| 20260904131030 | 51 | 76 | 12.0 | 22.0 | 0.00 | 0.00 | 0.00 | 1012.4 | |
| 20260904130527 | 51 | 74 | 15.0 | 22.0 | 0.00 | 0.00 | 0.00 | 1012.3 | |
| 20260904130052 | 51 | 77 | 13.0 | 21.0 | 0.00 | 0.00 | 0.00 | 1012.3 | |
| 20260904125529 | 51 | 77 | 13.0 | 21.0 | 0.00 | 0.00 | 0.00 | 1012.3 | |
| 20260904125028 | 51 | 74 | 12.0 | 21.0 | 0.00 | 0.00 | 0.00 | 1012.2 | |
| 20260904124556 | 51 | 71 | 16.0 | 20.0 | 0.00 | 0.00 | 0.00 | 1012.2 | |
| 20260904124028 | 51 | 81 | 14.0 | 20.0 | 0.00 | 0.00 | 0.00 | 1012.3 |